TimeCDT,TemperatureF,Dew PointF,Humidity,Sea Level PressureIn,VisibilityMPH,Wind Direction,Wind SpeedMPH,Gust SpeedMPH,PrecipitationIn,Events,Conditions,WindDirDegrees,DateUTC
12:53 AM,69.1,57.0,65,30.05,10.0,Calm,Calm,-,N/A,,Clear,0,2013-07-03 05:53:00
1:53 AM,68.0,57.0,68,30.05,10.0,ENE,3.5,-,N/A,,Clear,60,2013-07-03 06:53:00
2:53 AM,64.9,57.9,78,30.04,10.0,ENE,3.5,-,N/A,,Clear,70,2013-07-03 07:53:00
3:53 AM,64.0,55.9,75,30.05,10.0,NE,5.8,-,N/A,,Clear,50,2013-07-03 08:53:00
4:53 AM,63.0,55.0,75,30.06,10.0,ENE,4.6,-,N/A,,Clear,60,2013-07-03 09:53:00
5:53 AM,63.0,55.9,78,30.07,10.0,NE,3.5,-,N/A,,Clear,50,2013-07-03 10:53:00
6:53 AM,63.0,55.9,78,30.08,10.0,Calm,Calm,-,N/A,,Clear,0,2013-07-03 11:53:00
7:53 AM,66.0,57.9,75,30.09,10.0,NE,5.8,-,N/A,,Clear,50,2013-07-03 12:53:00
8:53 AM,70.0,59.0,68,30.10,10.0,ENE,6.9,-,N/A,,Clear,70,2013-07-03 13:53:00
9:53 AM,73.9,59.0,59,30.10,10.0,East,5.8,-,N/A,,Clear,100,2013-07-03 14:53:00
10:53 AM,78.1,59.0,52,30.09,10.0,ENE,6.9,-,N/A,,Clear,70,2013-07-03 15:53:00
11:53 AM,81.0,59.0,47,30.08,10.0,East,8.1,-,N/A,,Clear,80,2013-07-03 16:53:00
12:53 PM,82.9,57.0,41,30.06,10.0,Variable,4.6,-,N/A,,Clear,0,2013-07-03 17:53:00
1:53 PM,84.0,54.0,35,30.04,10.0,Calm,Calm,-,N/A,,Clear,0,2013-07-03 18:53:00
2:53 PM,87.1,55.0,33,30.02,10.0,NE,5.8,-,N/A,,Clear,50,2013-07-03 19:53:00
3:53 PM,86.0,51.1,30,30.01,10.0,Variable,4.6,-,N/A,,Clear,0,2013-07-03 20:53:00
4:53 PM,88.0,51.1,28,29.99,10.0,ENE,10.4,-,N/A,,Clear,70,2013-07-03 21:53:00
5:53 PM,87.1,52.0,30,29.99,10.0,North,4.6,-,N/A,,Clear,10,2013-07-03 22:53:00
6:53 PM,84.9,53.1,33,29.97,10.0,East,5.8,-,N/A,,Clear,80,2013-07-03 23:53:00
7:53 PM,82.0,57.9,44,29.97,10.0,East,5.8,-,N/A,,Clear,80,2013-07-04 00:53:00
8:53 PM,78.1,57.0,48,29.97,10.0,Calm,Calm,-,N/A,,Clear,0,2013-07-04 01:53:00
9:53 PM,77.0,57.0,50,29.99,10.0,ESE,3.5,-,N/A,,Clear,120,2013-07-04 02:53:00
10:53 PM,75.9,57.0,52,30.00,10.0,Calm,Calm,-,N/A,,Clear,0,2013-07-04 03:53:00
11:53 PM,73.0,59.0,61,30.01,10.0,ENE,3.5,-,N/A,,Clear,60,2013-07-04 04:53:00